Regional Weather Roundup
Issued by NWS Newport/Morehead, NC

Current Version | Previous Version | Graphics & Text | Print | Product List | Glossary Off
Versions: 1 2 3 4 5 6 7 8 9 10 11 12 13 14 15 16 17 18 19 20 21 22 23 24 25 26 27 28 29 30 31 32 33 34 35 36 37 38 39 40 41 42 43 44 45 46 47 48 49 50

000
ASUS42 KMHX 010510
RWRMHX
WEATHER ROUNDUP FOR EASTERN NORTH CAROLINA
NATIONAL WEATHER SERVICE NEWPORT/MOREHEAD CITY NC
1200 AM EST SUN FEB 01 2015

NOTE: "FAIR" INDICATES FEW OR NO CLOUDS BELOW 12,000 FEET
WITH NO SIGNIFICANT WEATHER AND/OR OBSTRUCTIONS TO VISIBILITY

NCZ015>017-031-032-045>047-102-103-010600-
NORTH COAST

CITY           SKY/WX    TMP DP  RH WIND       PRES   REMARKS
EDENTON        CLEAR     29  22  72 SW6       30.30F
ELIZABETH CITY CLEAR     30  22  72 S7        30.29F
KITTY HAWK     CLEAR     34  21  60 SW6       30.29F
MANTEO         CLEAR     34  21  60 W3        30.31S

$$

NCZ045>047-081-094-103-104-010600-
CENTRAL COAST

CITY           SKY/WX    TMP DP  RH WIND       PRES   REMARKS
FRISCO         CLEAR     29  24  82 W5        30.32F
SWANQUARTER      N/A     34 N/A N/A SW3       30.27S

$$

NCZ095-097-098-100-101-010600-
SOUTHERN COAST

CITY           SKY/WX    TMP DP  RH WIND       PRES   REMARKS
BEAUFORT       CLEAR     29  22  75 CALM      30.33F
CEDAR ISLAND     N/A     34 N/A N/A S5        30.33F
JACKSONVILLE   PTCLDY    33  24  69 SW5       30.32F
PINEY ISLAND     N/A    N/A N/A N/A MISG      30.31F
WILMINGTON     CLEAR     32  26  78 CALM      30.33F


$$

NCZ011>013-027>030-043-044-078>080-089-090>093-098-010600-
COASTAL PLAIN

CITY           SKY/WX    TMP DP  RH WIND       PRES   REMARKS
AHOSKIE        CLEAR     24  16  71 CALM      30.29F
CLINTON        CLEAR     32  21  64 CALM      30.31F
ELIZABETHTOWN  CLEAR     35  22  61 SW3       30.32S
GOLDSBORO      CLEAR     36  15  42 CALM      30.28F
GREENVILLE     CLEAR     30  19  64 CALM      30.30F
HAVELOCK       CLEAR     28  22  78 CALM      30.33F
KENANSVILLE    CLEAR     31  19  59 CALM      30.32F
KINSTON        CLEAR     30  20  66 S3        30.30F
NEW BERN       CLEAR     29  20  69 CALM      30.32F
RICHLANDS      CLEAR     28  21  74 SW5       30.32F
ROCKY MOUNT    CLEAR     27  20  75 CALM      30.29F
WASHINGTON     CLEAR     31  17  57 S3        30.30F
WHITEVILLE     CLEAR     35  24  64 CALM      30.32F

$$

AMZ130-135-150-152-154-156-158-170-250-252-270-ANZ085-086-088-633-658-670-010600-
MARINE OBSERVATIONS

STATION/POSITION TIME  TEMP    WIND        PRES    WAVE   SWELL
                       AIR SEA DIR/SP/G            HT/PER HT/PER
                 (UTC) (F)     (DEG/KT/KT) (MB)    (FT/S) (FT/S)
CHESAPEAKE LIGHT 0400   37     240/  4/  5 1026.4
64 E VA BEACH    0500   41 48  290/ 10/ 12 1025.1    5/ 8   5/ 8
DUCK             0500   36 40  210/  7/  8 1025.1
2 E DUCK         0500      41                N/A     3/ 8
10 NE DUCK       0500      43                N/A     4/ 7
OREGON INLET     0500   37 39  230/  9/  9 1026.3
13E OREGON INLT  0500      45                N/A     5/10   2/13
HATTERAS CG      0500   38 42  250/  5/  5 1026.8
DIAMOND BUOY     0500   47 71  290/ 14/ 17 1026.3    6/12   5/12
17 S OCRACOKE    NOT AVBL
CAPE LOOKOUT     0400   44      CALM  /  1 1027.0
BEAUFORT LAB     0500   36 45     CALM     1025.9
27 SE WRIGHTSVLE NOT AVBL
5 SE WRIGHTSVLE  0400   48 51  230/  8/ 12 1027.3
225 S CAPE HAT   0420   56 70  360/ 14/ 17 1026.7   10/11  10/11
41 SE CHARLESTON 0500   53 69  210/  4/  6 1027.4    4/ 9   3/ 9

$$


USA.gov is the U.S. government's official web portal to all federal, state and local government web resources and services.